User: anonymous   Login
Location: Sternwarte_Laufen
(47.9344°N, 12.9346°E)
Time: 07:40:01
(UTC+01:00)
Language:

BlueWalker 3 - Orbit

View from above orbital plane
View from above orbital plane
View from above satellite
View from above satellite

Ground track
Ground track

The orbit data is extracted from the following two-line orbital elements,

1 53807U 22111AL  23082.37254315  .00004301  00000-0  21187-3 0  9995
2 53807  53.2001 105.6211 0013290 143.2796 216.9114 15.19970068 29392
Epoch (UTC): 23 March 2023 08:56:27
Eccentricity: 0.0013290
inclination: 53.2001°
perigee height: 497 km
apogee height: 515 km
right ascension of ascending node: 105.6211°
argument of perigee: 143.2796°
revolutions per day: 15.19970068
mean anomaly at epoch: 216.9114°
orbit number at epoch: 2939

The dashed part of the orbit path shows where the satellite is in the earth's shadow,  

DLR